Fairbanks, AK

7:05 PM AKDT on October 17, 2017 (GMT -0800)
Fairbanks International

Weather History for PAFA - February, 2013

Change the Weather History Date:

Sunday, February 24, 2013

  Actual Average Record
Temperature  
Mean Temperature -10 °F 2 °F  
Max Temperature 1 °F 15 °F 50 °F (1943)
Min Temperature -22 °F -9 °F -52 °F (1932)
Degree Days  
Heating Degree Days 75 63  
Month to date heating degree days 1616 1611  
Since 1 July heating degree days 10734 10143  
Cooling Degree Days 0 0  
Month to date cooling degree days 0 0  
Year to date cooling degree days 0 0  
Moisture  
Dew Point -17 °F    
Average Humidity 73    
Maximum Humidity 82    
Minimum Humidity 47    
Precipitation  
Precipitation 0.00 in 0.01 in 0.33 in (2017)
Month to date precipitation 0.48 0.37  
Year to date precipitation 1.27 0.95  
Snow  
Snow 0.00 in 0.30 in 2.60 in (2008)
Month to date snowfall 10.7 7.2  
Since 1 July snowfall 50.5 55.4  
Snow Depth 23.00 in    
Sea Level Pressure  
Sea Level Pressure 29.60 in    
Wind  
Wind Speed 2 mph (SSW)    
Max Wind Speed 7 mph    
Max Gust Speed -    
Visibility 10 miles    
Events      
T = Trace of Precipitation, MM = Missing Value Source: NWS Daily Summary

Daily Weather History Graph

Daily Weather History Graph

Search for Another Location

Airport or City:

Trip Planner

Search our weather history database for the weather conditions in past years. The results will help you decide how hot, cold, wet, or windy it might be!

Date:

Astronomy

Feb. 24, 2013 Rise Set
Actual Time 8:16 AM AKST 5:53 PM AKST
Civil Twilight 7:26 AM AKST 6:43 PM AKST
Nautical Twilight 6:30 AM AKST 7:40 PM AKST
Astronomical Twilight 5:32 AM AKST 8:38 PM AKST
Moon 5:17 PM AKST (2/24) 7:24 AM AKST (2/24)
Length of Visible Light 11h 17m
Length of Day
9h 36m
Waxing Gibbous, 99% of the Moon is Illuminated
Feb 24
Waxing Gibbous
Feb 25
Full
Mar 4
Last Quarter
Mar 11
New
Mar 19
First Quarter

Hourly Weather History & Observations

Time (AKST) Temp. Windchill Dew Point Humidity Pressure Visibility Wind Dir Wind Speed Gust Speed Precip Events Conditions
12:53 AM -0.9 °F -14.1 °F -9.0 °F 69% 29.40 in 10.0 mi NNE 6.9 mph - N/A   Scattered Clouds
1:53 AM -6.0 °F -16.9 °F -11.9 °F 75% 29.43 in 10.0 mi SSW 4.6 mph - N/A   Scattered Clouds
2:53 AM -11.9 °F - -16.1 °F 82% 29.44 in 10.0 mi Calm Calm - N/A   Partly Cloudy
3:53 AM -11.9 °F - -17.0 °F 78% 29.45 in 10.0 mi Calm Calm - N/A   Partly Cloudy
4:53 AM -13.0 °F - -18.0 °F 78% 29.47 in 10.0 mi Calm Calm - N/A   Partly Cloudy
5:53 AM -15.0 °F - -20.0 °F 78% 29.49 in 10.0 mi Calm Calm - N/A   Partly Cloudy
6:53 AM -15.0 °F - -20.9 °F 75% 29.52 in 10.0 mi Calm Calm - N/A   Partly Cloudy
7:53 AM -17.0 °F - -22.0 °F 78% 29.55 in 10.0 mi Calm Calm - N/A   Mostly Cloudy
8:53 AM -18.9 °F - -24.0 °F 78% 29.56 in 10.0 mi Calm Calm - N/A   Scattered Clouds
9:53 AM -17.0 °F - -22.0 °F 78% 29.59 in 10.0 mi Calm Calm - N/A   Scattered Clouds
10:53 AM -15.0 °F - -20.0 °F 78% 29.60 in 10.0 mi Calm Calm - N/A   Scattered Clouds
11:53 AM -11.0 °F - -18.9 °F 68% 29.63 in 10.0 mi Calm Calm - N/A   Scattered Clouds
12:53 PM -7.1 °F - -16.1 °F 65% 29.63 in 10.0 mi Calm Calm - N/A   Mostly Cloudy
1:53 PM -2.9 °F - -13.0 °F 62% 29.63 in 10.0 mi Calm Calm - N/A   Mostly Cloudy
2:53 PM -2.0 °F - -11.9 °F 63% 29.65 in 10.0 mi Calm Calm - N/A   Scattered Clouds
3:53 PM -0.9 °F -8.9 °F -9.9 °F 66% 29.66 in 10.0 mi South 3.5 mph - N/A   Scattered Clouds
4:53 PM -5.1 °F -13.6 °F -13.0 °F 69% 29.67 in 10.0 mi SSW 3.5 mph - N/A   Scattered Clouds
5:53 PM -5.1 °F -13.6 °F -13.0 °F 69% 29.69 in 10.0 mi SSW 3.5 mph - N/A   Partly Cloudy
6:53 PM -13.0 °F - -17.0 °F 82% 29.71 in 10.0 mi Calm Calm - N/A   Partly Cloudy
7:53 PM -13.0 °F - -17.0 °F 82% 29.72 in 10.0 mi Calm Calm - N/A   Partly Cloudy
8:53 PM -14.1 °F - -18.9 °F 79% 29.74 in 10.0 mi Calm Calm - N/A   Scattered Clouds
9:53 PM -15.0 °F - -20.0 °F 78% 29.74 in 10.0 mi Calm Calm - N/A   Scattered Clouds
10:53 PM -15.0 °F - -20.0 °F 78% 29.75 in 10.0 mi Calm Calm - N/A   Scattered Clouds
11:53 PM -16.1 °F - -22.0 °F 74% 29.76 in 10.0 mi Calm Calm - N/A   Mostly Cloudy